sat.trackr.live / text

‹ back to catalog

STARLINK-36092

NORAD 66869 · 2025-281X

PAYLOAD ACTIVE UNKNOWN

§ Identity

Operator
Country
US
Launch date
2025-12-02
Launch site
AFETR
Launch vehicle
Mass (kg)
RCS (m²)

Purposes: comms

External: N2YO · Heavens-Above · Gunter

§ Orbital elements

Epoch: 2026-09-20T20:56:05.944128Z

Period
94.27 min
Inclination
43.0036°
Eccentricity
0.0000774
Mean motion
15.27590550 rev/d
Perigee alt
482.5 km
Apogee alt
483.5 km
Semi-major
6,861.2 km
B*
3.7074e-4
RAAN
321.4036°
Arg perigee
276.7869°
Mean anomaly
83.2895°
Rev number
4,602

§ Raw data

STARLINK-360921 66869U 25281X   26263.87229102  .00009957  00000+0  37074-3 0  99962 66869  43.0036 321.4036 0000774 276.7869  83.2895 15.27590550 46021

JSON: /api/v1/satellites/66869 · /tle

For live sub-satellite position, see the globe view (requires WebGL).

§ Visibility from observer

Set your observer location to see the next 7 days of passes ≥ 10°. The values pass through the URL so the page stays shareable.

No JS? Fill the form by hand. The geolocation button needs JavaScript.